www.pogodaiklimat.ru

Погода и климат >> Архив погоды >> Сенегал >> Колда


ПОГОДА в Колде

  • Прогноз погоды в Колде
  • Монитор погоды в Колде

АРХИВ ПОГОДЫ в Колде

Время (UTC), дата Ветер
(напр.,м/с)
 
Видим.   Явления Облачность Т
(С)
Тd
(С)
f
(%)
Тe
(С)
Тes
(С)
Комфортность P
(гПа)
Po
(гПа)
Тmin
(С)
Tmax
(С)
R
(мм)
R24
(мм)
S
(см)
06 13.02 штиль 0 8000 м ясно +23.0 +3.9 29 +23 +23 комфорт 1011.1 1010.0 +17.5
09 13.02 СВ 3 10 км 6/0
[Ac trans]
+25.0 +2.3 23 +24 +26 комфорт 1012.4 1011.3
12 13.02 В 5 8000 м пыльный позёмок ясно +35.0 +3.6 14 +32 +41 жарко 1011.9 1010.8
15 13.02 В 3 8000 м пыльный позёмок 6/0
[Ci fib]
+38.3 +12.1 21 +38 +47 очень
жарко
1009.3 1008.2
18 13.02 СВ 2 10 км 5/0
[Ci fib]
+37.5 +12.6 23 +37 +38 очень
жарко
1008.2 1007.1 +39.0
21 13.02 штиль 0 8000 м 4/0
[Ci sp]
+25.5 +13.3 47 +28 +28 жарко 1009.7 1008.6
00 14.02 штиль 0 8000 м 6/0
[Ac trans]
+21.0 +13.4 62 +23 +23 комфорт 1011.9 1010.8
03 14.02 штиль 0 8000 м 4/0
[Ci fib]
+20.0 +13.8 67 +22 +22 комфорт 1011.6 1010.5
06 14.02 штиль 0 8000 м 4/0
[Ci fib]
+19.0 +12.8 67 +20 +20 1011.4 1010.3 +18.8
09 14.02 СВ 2 10 км 6/0
[Ac trans]
+24.5 +4.7 28 +24 +27 комфорт 1013.3 1012.2
12 14.02 В 3 10 км 4/0
[Ac trans]
+34.2 +5.7 17 +32 +42 жарко 1013.5 1012.4
15 14.02 ЮВ 1 10 км 6/0
[Ac trans]
+39.7 +11.0 18 +39 +49 очень
жарко
1010.1 1009.0
18 14.02 штиль 0 10 км 9/0
[Ac As]
+36.4 +13.7 26 +37 +37 очень
жарко
1009.9 1008.8 +40.0
21 14.02 штиль 0 8000 м 9/0
[Ac As]
+28.8 +14.6 42 +31 +31 жарко 1012.2 1011.1
00 15.02 штиль 0 8000 м 9/0
[Ac As]
+26.5 +17.0 56 +30 +30 душно 1013.6 1012.5
03 15.02 штиль 0 8000 м 9/0
[Ac As]
+23.0 +16.7 68 +28 +28 душно 1013.5 1012.4
06 15.02 штиль 0 8000 м ясно +20.0 +17.7 87 +23 +23 комфорт 1012.9 1011.8 +19.3
09 15.02 штиль 0 10 км 8/0
[Ac cast]
+22.0 +16.8 72 +26 +29 душно 1014.0 1012.9
12 15.02 В 2 10 км 8/0
[Ac cast]
+34.8 +10.5 23 +34 +41 очень
жарко
1013.3 1012.2
15 15.02 СВ 2 10 км 9/0
[Ci]
+38.6 +9.9 18 +37 +48 очень
жарко
1010.3 1009.2
18 15.02 СВ 1 8000 м 8/0
[Ci]
+38.0 +11.3 20 +37 +38 очень
жарко
1009.7 1008.6 +39.5
21 15.02 штиль 0 8000 м 9/0
[Ci]
+28.5 +13.9 41 +30 +30 жарко 1010.9 1009.8
00 16.02 С 2 8000 м 9/0
[Ci]
+25.5 +14.8 52 +28 +28 жарко 1012.2 1011.1
03 16.02 штиль 0 8000 м 9/0
[Ci]
+23.0 +14.6 59 +27 +27 душно 1010.9 1009.8
06 16.02 С 1 8000 м 9/0
[Ci]
+21.5 +14.8 66 +25 +25 комфорт 1010.9 1009.8 +21.0
09 16.02 СВ 2 10 км 9/0
[Ac As]
+25.0 +5.6 29 +25 +26 комфорт 1012.0 1010.9
12 16.02 10 км 6/0
[Ci fib]
+35.0 +3.6 14 1011.9 1010.8
15 16.02 СВ 2 10 км 8/0
[Ci]
+39.0 +7.7 15 +37 +48 очень
жарко
1009.5 1008.4
18 16.02 С 2 10 км 6/0
[Ci]
+36.7 +8.6 18 +35 +36 очень
жарко
1008.8 1007.7 +39.6
21 16.02 С 2 8000 м 4/0
[Ci]
+30.6 +7.2 23 +29 +29 жарко 1010.3 1009.2
00 17.02 штиль 0 8000 м 8/0
[Ac trans]
+26.0 +6.4 29 +26 +26 жарко 1011.4 1010.3
03 17.02 штиль 0 8000 м 8/0
[Ac trans]
+23.9 +9.5 40 +25 +25 комфорт 1010.6 1009.5
06 17.02 штиль 0 8000 м ясно +23.8 +9.6 41 +25 +25 комфорт 1010.7 1009.6 +22.7
09 17.02 С 2 10 км 4/0
[Ci fib]
+24.0 +8.1 36 +24 +28 комфорт 1012.8 1011.7
12 17.02 СВ 5 10 км 8/0
[Ci fib]
+33.2 +6.3 19 +31 +39 жарко 1012.8 1011.7
15 17.02 В 3 10 км 8/0
[Ci fib]
+38.3 +6.8 15 +36 +45 очень
жарко
1008.8 1007.7
18 17.02 СВ 1 10 км 8/0
[Ci fib]
+38.0 +6.2 14 +35 +36 очень
жарко
1008.6 1007.5 +39.0
21 17.02 штиль 0 8000 м 8/0
[Ci fib]
+28.6 +11.1 34 +29 +29 жарко 1009.9 1008.8
03 18.02 штиль 0 8000 м 9/0
[Ci]
+20.5 +11.6 57 +22 +22 комфорт 1011.1 1010.0
06 18.02 штиль 0 8000 м 8/0
[Ci]
+18.0 +12.7 71 +18 +18 1011.0 1009.9 +17.5
09 18.02 СВ 1 10 км 6/0
[Ci fib]
+20.0 +14.0 68 +23 +28 комфорт 1012.9 1011.8
12 18.02 В 3 10 км 8/0
[Ci fib]
+32.0 +10.5 27 +32 +44 жарко 1012.2 1011.1
15 18.02 С 4 10 км 5/0
[Ci fib]
+37.5 +8.4 17 +36 +44 очень
жарко
1009.0 1007.9
18 18.02 С 4 10 км пыльный позёмок ясно +35.7 +9.6 20 +34 +35 очень
жарко
1008.2 1007.1 +37.8
21 18.02 штиль 0 8000 м ясно +30.0 +9.8 29 +30 +30 жарко 1010.2 1009.1
00 19.02 штиль 0 8000 м ясно +23.7 +12.2 48 +25 +25 комфорт 1011.2 1010.1
03 19.02 штиль 0 8000 м 9/0
[Ac trans]
+20.2 +12.8 62 +22 +22 комфорт 1010.9 1009.8
06 19.02 штиль 0 8000 м 4/0
[Ci sp]
+18.5 +13.2 71 +19 +19 1010.0 1008.9 +18.3
09 19.02 штиль 0 10 км 9/0
[Ac As]
+20.8 +14.3 66 +23 +25 комфорт 1011.2 1010.1
12 19.02 В 3 10 км 8/0
[Ac As]
+29.2 +7.3 25 +28 +35 жарко 1011.3 1010.2
15 19.02 С 4 10 км 6/0
[Ci sp]
+35.2 +10.0 22 +34 +42 очень
жарко
1008.7 1007.6
18 19.02 С 4 10 км пыльный позёмок 6/0
[Ci sp]
+33.7 +7.6 20 +32 +33 жарко 1008.1 1006.6 +36.4
21 19.02 штиль 0 8000 м 9/0
[Ac As]
+25.5 +12.7 45 +27 +27 жарко 1009.5 1008.4
00 20.02 штиль 0 8000 м 9/0
[Ci]
+21.8 +14.0 61 +25 +25 комфорт 1010.3 1009.2
03 20.02 штиль 0 8000 м 9/0
[Ci]
+19.2 +13.7 70 +20 +20 1010.0 1008.9

 

Местоположение метеостанции Колда (Сенегал): широта 12.88 долгота -14.96 высота над уровнем моря 10 м.

В архиве по умолчанию представлена погода в Колде за последнюю неделю. Архивные данные за месяц целиком и за предыдущие месяцы, начиная с января 2011 года, Вы можете получить, выбрав интересующий диапазон дат из раскрывающегося списка и нажав кнопку "Ввод!".


*Определитесь, кто Вы:
робот инопланетянин человек

Внимание! Время в таблицах - всемирное. Для получения местного времени необходимо прибавить поправку, которая равна 0 ч.

Смотрите также архив погоды в соседних городах и на ближайших метеорологических станциях:

Погода в Джорджтауне (Гамбия) (75 км)
Погода в Бафате (Гвинея-Биссау) (85 км)
Погода в Бассе (Гамбия) (89 км)
Погода в Женое (Гамбия) (94 км)
Погода в Кауере (Гамбия) (100 км)
Погода в Сапу (Гамбия) (130 км)
Погода в Биссау (Гвинея-Биссау) (132 км)
Погода в Сибаноре (Гамбия) (140 км)
Погода в Кереване (Гамбия) (140 км)
Погода в Зигиншоре (Сенегал) (146 км)

Пояснения к столбцам:

Ветер - указаны скорость ветра в м/с - средняя за 10 мин, порывы в срок и между сроками (в фигурных скобках) и направление, откуда дует ветер: С - северный, СВ - северо-восточный, В - восточный, ЮВ - юго-восточный, Ю - южный, ЮЗ - юго-западный, З - западный, СЗ - северо-западный.
Видимость - горизонтальная дальность видимости в метрах или километрах. При видимости от 1 до 10 км при отсутствии осадков обычно наблюдается дымка, при ухудшении видимости до 1 км и менее - туман. В сухую погоду видимость может ухудшаться дымом, пылью или мглою.
Явления - указаны атмосферные явления, наблюдавшиеся в срок или в последний час перед сроком; фигурными скобками обозначены явления, наблюдавшиеся между сроками (за 1-3 часа до срока); квадратными скобками обозначены град или гололедные отложения с указанием их диаметра в мм.
Облачность - указаны через наклонную черту общая и нижняя облачность в баллах и высота нижней границы облаков в метрах; квадратными скобками обозначены формы облаков: Ci - перистые, Cs - перисто-слоистые, Cc - перисто-кучевые, Ac - высококучевые, As - высокослоистые, Sc - слоисто-кучевые, Ns - слоисто-дождевые, Cu - кучевые, Cb - кучево-дождевые. Подробнее классификацию облаков см. в Атласе облаков (PDF).
T - Температура воздуха - температура, измеренная на высоте 2 м над землей.
Td - Температура точки росы - температура, при понижении до которой содержащийся в воздухе водяной пар достигнет насыщения.
f - Относительная влажность воздуха - влажноcть воздуха, измеренная на высоте 2 м над землей.
Te - Эффективная температура - температура, которую ощущает одетый по сезону человек в тени. Характеристика душности погоды. При расчете учитывается влияние влажности воздуха и скорости ветра на теплоощущения человека.
Tes - Эффективная температура на солнце - температура, которую ощущает человек, с поправкой на солнечный нагрев. Характеристика знойности погоды. Зависит от высоты солнца над горизонтом, облачности и скорости ветра. Ночью, в пасмурную погоду, а также при ветре 12 м/с и более поправка равна нулю.
P - Атмосферное давление - приведенное к уровню моря атмосферное давление.
Po - Атмосферное давление - измеренное на уровне метеостанции атмосферное давление.
Tmin - Минимальная температура - минимум температуры воздуха на высоте 2 м над землей.
Tmax - Максимальная температура - максимум температуры воздуха на высоте 2 м над землей.
R - Количество осадков - Количество выпавших осадков за период времени, мм. При наведении курсора мыши на число - период времени, за который выпало указанное количество осадков.
R24 - Количество осадков - Количество выпавших осадков за 24 часа, мм.
S - Снежный покров - Высота снежного покрова, см. При наведении курсора мыши на число - состояние снежного покрова и степень покрытия местности в баллах.